Showing default

FENGYUNG-4C, 67246

Orbit data source: Space-Track

FENGYUNG-4C, 67246 is a payload satellite owned by CNMSC (CN) in GEO that was launched on Fri, 26 Dec 2025 UTC via a CHANG ZHENG 3B launch vehicle from the Xichang Space Center, China (XSC). Payload-class satellites include a variety of spacecraft equipped with specific instruments for various scientific and technological missions. These include communications satellites like Starlink; space stations such as the ISS; scientific satellites like the Hubble; Earth observation satellites from companies like Planet Labs, Umbra, and HawkEye 360; GPS; miniature CubeSats for education and research; and military/defense satellites.

Not visible in the next 10 days
Identifier
67246, 2025-312A
Orbit
GEO
Country
Flag of CNCN / PRC
Related business
Manufacturer
SISE
Mission
Operational Civil Weather
Bus & Motor
FY-4, LAE?
Mass
5,380 kg wet, ~3,000 kg dry
Launch date (UTC)
2025-12-26 (6 months ago)
Launch vehicle
CHANG ZHENG 3B
Launch site
Xichang Space Center, China (XSC)
Object type
Payload
Rocket body
Debris
Shape & HBR
Box + 1 Pan, 14.5 m
Radar Cross Section
24.437 m², Large (>1 m²)

Expand to show TLE details & history
Last TLE update: 12 hours ago

TLE from 12 hours ago
0 FENGYUNG-4C
1 67246U 25312A   26171.34702229 -.00000327  00000-0  00000+0 0  9996
2 67246   0.0452 144.2987 0000339  53.1215 329.0590  1.00270994  1815
Epoch: 2026-06-20T08:19Z
TLE epoch observation values (Epoch: 2026-06-20T08:19:42.725Z)
Latitude
0.02621°
Longitude
132.9986°
Altitude
35,785.083 km
Speed
3.075 km/s
True Right ascension
11h 05m 57s
True Declination
0° 01' 34"
Sunlit
Object was in daylight at epoch
Visualization orbit readout
Latitude
Unknown
Longitude
Unknown
Altitude
Unknown
Speed
Unknown
Apparent Right ascension
Unknown
Apparent Declination
Unknown
Sunlit
N/A
Visualization observer readout
Local Sidereal Time
07:20:19
Azimuth
Unknown
Elevation
Unknown
Doppler factor
Unknown
Orbital elements
Apogee altitude
35,789.317 km
Perigee altitude
35,786.458 km
Semi-major axis
42,166.024 km
Eccentricity
0.00003
Inclination
0.0452°
RAAN
144.2987°
Arg. of periapsis
53.1215°
True anomaly
329.057°
Mean anomaly
329.059°
Eccentric anomaly
329.058°
Mean motion
0.25067 °/min
Orbital period
1,436.16 mins
BSTAR
0
Loading maneuver chart data...
Computing Atmospheric mass density...
Loading historical data...
Loading historical data...
Loading historical data...
Loading historical data...
Loading historical data...
Loading historical data...
Loading historical data...
Other satellites on launch #312 in the year 2025 (2025-12-26 UTC)

Documentation

Showing up to 5 results
|